User: anonymous   Login
Location: *
(51.5000°N, 0.1100°W)
Time: 07:48:39
(UTC+00:00)
Language:

Cosmos 1346 Rocket - Orbit

View from above orbital plane
View from above orbital plane
View from above satellite
View from above satellite

Ground track
Ground track

The orbit data is extracted from the following two-line orbital elements,

1 13121U 82027B   24202.17610197  .00008466  00000-0  41992-3 0  9991
2 13121  81.1915  18.4933 0011290 131.2181 229.0024 15.17549743307873
Epoch (UTC): 20 July 2024 04:13:35
Eccentricity: 0.0011290
inclination: 81.1915°
perigee height: 505 km
apogee height: 521 km
right ascension of ascending node: 18.4933°
argument of perigee: 131.2181°
revolutions per day: 15.17549743
mean anomaly at epoch: 229.0024°
orbit number at epoch: 30787

The dashed part of the orbit path shows where the satellite is in the earth's shadow,  

DLR